Погода в Гашун-Бургусте

Россия / Республика Калмыкия     47°14′07″N   44°30′04″E
темп.,
°C
ветер,
м/с
пор.,
м/с
влажн.,
%
обл.,
%
осадки,
мм/ч
давл.,
гПа
погр.,
м
18 мая, вт
вт1800:00+19в333434 0.0 100725
03:00+18вюв223796 0.0 100611
06:00+18з4646100 0.0 1006111
09:00+22зсз665779 0.0 1007656
12:00+22зсз7657100 0.0 10081224
15:00+22з766188 0.1 10091041
18:00+22з55570 0.0 10101068
21:00+17з47756 0.0 1011127
19 мая, ср
ср1900:00+16зсз33810 0.0 101136
03:00+15ссз33874 0.0 101031
06:00+16ссв237921 0.0 1010110
09:00+21вюв2255100 0.0 1010687
12:00+25юз233873 0.0 1009965
15:00+18з131669100 0.0 1012801
18:00+16з101572100 0.0 1012447
21:00+15зюз51172100 0.1 1014456
20 мая, чт
чт2000:00+15зюз91573100 0.0 1014549
03:00+13зюз714780 0.0 1015514
06:00+14зюз612734 0.0 1016569
09:00+19зюз811530 0.0 10161241
12:00+22зюз7943100 0.0 10161904
15:00+23з68380 0.0 10152019
18:00+22зюз45425 0.0 10151639
21:00+18зсз335796 0.0 101518
21 мая, пт
пт2100:00+16св22655 0.0 101611
03:00+15в226752 0.0 101615
06:00+17вюв356224 0.0 1016148
09:00+24юв463970 0.0 1016656
12:00+28юв6728100 0.0 10151668
15:00+30юв78245 0.0 10142095
18:00+28юв812305 0.0 1013658
21:00+23юв815358 0.0 1014460
22 мая, сб
сб2200:00+20юв6164122 0.0 1013439
03:00+18вюв5164732 0.0 1013375
06:00+20вюв8194278 0.0 1013573
09:00+27юв11172862 0.0 10121111
12:00+32юв12152311 0.0 10111769
15:00+33юв12142110 0.0 10102061
18:00+30юв913275 0.0 1011950
21:00+24вюв51333100 0.0 1012282